When you browse on this site, cookies collect data to enhance your experience and personalize the content and advertising you see.
Visit our Privacy Policy to learn more. By continuing to use the site, you agree to this use of cookies and data.
  • In Denmark
  • List of Countries
  • For 7 days
  • Water Temperature
  • Weather Map
  • Weather Widgets
  • user-avatar
    Login

    Hourly Weather Shmelevka

    Today, 6 June, Saturday

    Time Temperature Precipitation Wind Pressure Humidity
    00:00 +10°C° 0 mm 2 mps 737 mmHg 97%
    01:00 +10°C° 0 mm 2 mps 737 mmHg 98%
    02:00 +12°C° 0 mm 2 mps 737 mmHg 98%
    03:00 +12°C° 0 mm 2 mps 737 mmHg 98%
    04:00 +12°C° 0 mm 3 mps 737 mmHg 97%
    05:00 +13°C° 0 mm 3 mps 738 mmHg 97%
    06:00 +14°C° 0 mm 3 mps 738 mmHg 95%
    07:00 +15°C° 0 mm 4 mps 738 mmHg 93%
    08:00 +17°C° 0 mm 4 mps 738 mmHg 91%
    09:00 +18°C° 0 mm 4 mps 738 mmHg 87%
    10:00 +20°C° 0 mm 4 mps 738 mmHg 84%
    11:00 +21°C° 0 mm 4 mps 738 mmHg 81%
    12:00 +22°C° 0.2 mm 4 mps 738 mmHg 80%
    13:00 +22°C° 0.2 mm 4 mps 738 mmHg 78%
    14:00 +23°C° 0.2 mm 4 mps 738 mmHg 77%
    15:00 +22°C° 1 mm 4 mps 738 mmHg 80%
    16:00 +22°C° 1 mm 4 mps 738 mmHg 84%
    17:00 +21°C° 1 mm 3 mps 737 mmHg 87%
    18:00 +20°C° 0.8 mm 3 mps 738 mmHg 89%
    19:00 +20°C° 0.8 mm 3 mps 738 mmHg 90%
    20:00 +19°C° 0.8 mm 2 mps 738 mmHg 91%
    21:00 +18°C° 0.3 mm 2 mps 738 mmHg 91%
    22:00 +18°C° 0.3 mm 3 mps 738 mmHg 92%
    23:00 +18°C° 0.3 mm 3 mps 738 mmHg 92%

    Tomorrow, 7 June, Sunday

    Time Temperature Precipitation Wind Pressure Humidity
    00:00 +17°C° 0 mm 3 mps 738 mmHg 94%
    01:00 +16°C° 0 mm 2 mps 739 mmHg 95%
    02:00 +16°C° 0 mm 2 mps 739 mmHg 96%
    03:00 +16°C° 0 mm 2 mps 739 mmHg 95%
    04:00 +16°C° 0 mm 2 mps 739 mmHg 95%
    05:00 +17°C° 0 mm 2 mps 739 mmHg 95%
    06:00 +18°C° 0 mm 2 mps 740 mmHg 91%
    07:00 +20°C° 0 mm 2 mps 740 mmHg 87%
    08:00 +21°C° 0 mm 2 mps 741 mmHg 84%
    09:00 +23°C° 0.1 mm 2 mps 741 mmHg 79%
    10:00 +24°C° 0.1 mm 2 mps 741 mmHg 75%
    11:00 +25°C° 0.1 mm 2 mps 741 mmHg 71%
    12:00 +26°C° 0 mm 2 mps 741 mmHg 69%
    13:00 +26°C° 0 mm 2 mps 741 mmHg 66%
    14:00 +27°C° 0 mm 1 mps 741 mmHg 64%
    15:00 +26°C° 0 mm 1 mps 741 mmHg 67%
    16:00 +26°C° 0 mm 1 mps 741 mmHg 69%
    17:00 +26°C° 0 mm 1 mps 741 mmHg 72%
    18:00 +24°C° 0 mm 1 mps 741 mmHg 76%
    19:00 +23°C° 0 mm 1 mps 741 mmHg 80%
    20:00 +19°C° 0 mm 0 mps 741 mmHg 85%
    21:00 +18°C° 0 mm 0 mps 741 mmHg 85%
    22:00 +18°C° 0 mm 0 mps 741 mmHg 86%
    23:00 +17°C° 0 mm 0 mps 742 mmHg 87%

    Day after tomorrow, 8 June, Monday

    Time Temperature Precipitation Wind Pressure Humidity
    00:00 +17°C° 0 mm 0 mps 742 mmHg 87%
    01:00 +17°C° 0 mm 0 mps 742 mmHg 88%
    02:00 +16°C° 0 mm 0 mps 742 mmHg 88%
    03:00 +17°C° 0 mm 0 mps 742 mmHg 88%
    04:00 +18°C° 0 mm 0 mps 742 mmHg 88%
    05:00 +20°C° 0 mm 1 mps 742 mmHg 88%
    06:00 +22°C° 0 mm 1 mps 742 mmHg 84%
    07:00 +23°C° 0 mm 1 mps 742 mmHg 80%
    08:00 +24°C° 0 mm 1 mps 742 mmHg 76%
    09:00 +25°C° 0 mm 1 mps 742 mmHg 72%
    10:00 +26°C° 0 mm 1 mps 742 mmHg 68%
    11:00 +25°C° 0 mm 0 mps 742 mmHg 64%
    12:00 +27°C° 0 mm 1 mps 742 mmHg 62%
    13:00 +28°C° 0 mm 1 mps 742 mmHg 60%
    14:00 +28°C° 0 mm 1 mps 742 mmHg 59%
    15:00 +28°C° 0 mm 1 mps 741 mmHg 63%
    16:00 +27°C° 0 mm 1 mps 741 mmHg 67%
    17:00 +27°C° 0 mm 2 mps 741 mmHg 71%
    18:00 +25°C° 0 mm 2 mps 741 mmHg 78%
    19:00 +24°C° 0 mm 2 mps 741 mmHg 85%
    20:00 +21°C° 0 mm 3 mps 741 mmHg 91%
    21:00 +20°C° 0 mm 3 mps 741 mmHg 93%
    22:00 +20°C° 0 mm 3 mps 741 mmHg 95%
    23:00 +19°C° 0 mm 3 mps 741 mmHg 96%

    9 June, Tuesday

    Time Temperature Precipitation Wind Pressure Humidity
    00:00 +19°C° 0 mm 3 mps 741 mmHg 97%
    01:00 +19°C° 0 mm 3 mps 742 mmHg 97%
    02:00 +18°C° 0 mm 3 mps 742 mmHg 97%
    03:00 +18°C° 0 mm 3 mps 742 mmHg 96%
    04:00 +19°C° 0 mm 3 mps 742 mmHg 95%
    05:00 +19°C° 0 mm 3 mps 742 mmHg 94%
    06:00 +20°C° 0 mm 3 mps 742 mmHg 90%
    07:00 +21°C° 0 mm 4 mps 742 mmHg 86%
    08:00 +22°C° 0 mm 4 mps 742 mmHg 83%
    09:00 +23°C° 0 mm 5 mps 742 mmHg 80%
    10:00 +25°C° 0 mm 5 mps 742 mmHg 77%
    11:00 +26°C° 0 mm 5 mps 742 mmHg 74%
    12:00 +26°C° 0 mm 5 mps 742 mmHg 73%
    13:00 +26°C° 0 mm 5 mps 742 mmHg 72%
    14:00 +26°C° 0 mm 5 mps 742 mmHg 71%
    15:00 +26°C° 0 mm 4 mps 742 mmHg 73%
    16:00 +26°C° 0 mm 4 mps 742 mmHg 76%
    17:00 +25°C° 0 mm 3 mps 742 mmHg 78%
    18:00 +24°C° 0 mm 3 mps 742 mmHg 82%
    19:00 +22°C° 0 mm 3 mps 742 mmHg 87%
    20:00 +20°C° 0 mm 3 mps 742 mmHg 91%
    21:00 +19°C° 0 mm 3 mps 742 mmHg 92%
    22:00 +19°C° 0 mm 3 mps 742 mmHg 93%
    23:00 +18°C° 0 mm 3 mps 742 mmHg 94%

    10 June, Wednesday

    Time Temperature Precipitation Wind Pressure Humidity
    00:00 +18°C° 0 mm 3 mps 742 mmHg 94%
    01:00 +17°C° 0 mm 2 mps 742 mmHg 95%
    02:00 +17°C° 0 mm 2 mps 742 mmHg 95%
    03:00 +17°C° 0 mm 2 mps 742 mmHg 94%
    04:00 +18°C° 0 mm 3 mps 742 mmHg 94%
    05:00 +18°C° 0 mm 3 mps 742 mmHg 93%
    06:00 +20°C° 0 mm 3 mps 742 mmHg 89%
    07:00 +21°C° 0 mm 3 mps 742 mmHg 86%
    08:00 +24°C° 0 mm 3 mps 742 mmHg 82%
    09:00 +24°C° 0.1 mm 3 mps 742 mmHg 79%
    10:00 +25°C° 0.1 mm 3 mps 742 mmHg 75%
    11:00 +26°C° 0.1 mm 4 mps 742 mmHg 72%
    12:00 +26°C° 0.1 mm 4 mps 742 mmHg 71%
    13:00 +26°C° 0.1 mm 4 mps 742 mmHg 70%
    14:00 +27°C° 0.1 mm 4 mps 742 mmHg 69%
    15:00 +26°C° 0.2 mm 3 mps 741 mmHg 72%
    16:00 +26°C° 0.2 mm 3 mps 741 mmHg 75%
    17:00 +26°C° 0.2 mm 3 mps 741 mmHg 78%
    18:00 +24°C° 0.5 mm 3 mps 741 mmHg 82%
    19:00 +22°C° 0.5 mm 3 mps 741 mmHg 87%
    20:00 +21°C° 0.5 mm 2 mps 741 mmHg 91%
    21:00 +20°C° 0 mm 2 mps 741 mmHg 92%
    22:00 +20°C° 0 mm 2 mps 741 mmHg 93%
    23:00 +19°C° 0 mm 2 mps 741 mmHg 94%

    11 June, Thursday

    Time Temperature Precipitation Wind Pressure Humidity
    00:00 +19°C° 0 mm 2 mps 741 mmHg 94%
    01:00 +18°C° 0 mm 2 mps 741 mmHg 94%
    02:00 +18°C° 0 mm 2 mps 741 mmHg 94%
    03:00 +19°C° 0 mm 2 mps 741 mmHg 94%
    04:00 +19°C° 0 mm 2 mps 740 mmHg 94%
    05:00 +19°C° 0 mm 2 mps 740 mmHg 94%
    06:00 +21°C° 0 mm 2 mps 740 mmHg 89%
    07:00 +23°C° 0 mm 2 mps 741 mmHg 84%
    08:00 +25°C° 0 mm 2 mps 741 mmHg 79%
    09:00 +26°C° 0 mm 2 mps 740 mmHg 76%
    10:00 +27°C° 0 mm 3 mps 740 mmHg 72%
    11:00 +28°C° 0 mm 3 mps 740 mmHg 69%
    12:00 +28°C° 0.4 mm 3 mps 740 mmHg 70%
    13:00 +28°C° 0.4 mm 3 mps 740 mmHg 70%
    14:00 +29°C° 0.4 mm 3 mps 739 mmHg 70%
    15:00 +28°C° 0.6 mm 3 mps 739 mmHg 74%
    16:00 +28°C° 0.6 mm 3 mps 739 mmHg 77%
    17:00 +27°C° 0.6 mm 3 mps 739 mmHg 80%
    18:00 +26°C° 0 mm 3 mps 739 mmHg 82%
    19:00 +24°C° 0 mm 3 mps 739 mmHg 84%
    20:00 +22°C° 0 mm 3 mps 739 mmHg 87%
    21:00 +21°C° 0 mm 2 mps 739 mmHg 89%
    22:00 +20°C° 0 mm 2 mps 739 mmHg 90%
    23:00 +20°C° 0 mm 2 mps 739 mmHg 92%
    Show more